Madera, CA

3:15 AM PDT on May 28, 2018 (GMT -0700)
Madera Municipal

Weather History for KMAE - January, 2013

Change the Weather History Date:

Thursday, January 31, 2013

  Actual Average Record
Temperature  
Mean Temperature 50 °F 48 °F  
Max Temperature 65 °F 57 °F 66 °F (2018)
Min Temperature 34 °F 38 °F 27 °F (2002)
Degree Days  
Heating Degree Days 15    
Month to date heating degree days 639  
Since 1 July heating degree days 1533  
Cooling Degree Days 0    
Month to date cooling degree days 0  
Year to date cooling degree days 0  
Moisture  
Dew Point 40 °F    
Average Humidity 68    
Maximum Humidity 92    
Minimum Humidity 44    
Precipitation  
Precipitation 0.00 in 0.05 in 0.59 in (2016)
Month to date precipitation 1.23 2.45  
Year to date precipitation 1.23 2.45  
Since 1 July precipitation 5.93  
Snow  
Snow 0.00 in - - ()
Month to date snowfall 0.0  
Since 1 July snowfall 0.0  
Snow Depth 0.00 in    
Sea Level Pressure  
Sea Level Pressure 30.26 in    
Wind  
Wind Speed 1 mph (NNE)    
Max Wind Speed 7 mph    
Max Gust Speed -    
Visibility 8 miles    
Events      
T = Trace of Precipitation, MM = Missing Value Source: NWS Daily Summary

Daily Weather History Graph

Daily Weather History Graph

Search for Another Location

Airport or City:

Astronomy

Jan. 31, 2013 Rise Set
Actual Time 7:03 AM PST 5:24 PM PST
Civil Twilight 6:36 AM PST 5:52 PM PST
Nautical Twilight 6:05 AM PST 6:23 PM PST
Astronomical Twilight 5:34 AM PST 6:53 PM PST
Moon 10:23 PM PST (1/31) 9:14 AM PST (1/31)
Length of Visible Light 11h 16m
Length of Day
10h 21m
Waning Gibbous, 79% of the Moon is Illuminated
Jan 31
Waning Gibbous
Feb 3
Last Quarter
Feb 9
New
Feb 17
First Quarter
Feb 25
Full

Hourly Weather History & Observations

Time (PST) Temp. Windchill Dew Point Humidity Pressure Visibility Wind Dir Wind Speed Gust Speed Precip Events Conditions
12:53 AM 41.0 °F 38.0 °F 37.0 °F 86% 30.30 in 9.0 mi ENE 4.6 mph - N/A   Clear
1:53 AM 41.0 °F 39.0 °F 37.0 °F 86% 30.31 in 9.0 mi East 3.5 mph - N/A   Clear
2:53 AM 39.0 °F - 36.0 °F 89% 30.30 in 9.0 mi Calm Calm - N/A   Clear
3:53 AM 39.0 °F 35.7 °F 36.0 °F 89% 30.29 in 10.0 mi East 4.6 mph - N/A   Clear
4:53 AM 37.0 °F - 35.1 °F 93% 30.28 in 8.0 mi Calm Calm - N/A   Clear
5:53 AM 36.0 °F - 34.0 °F 93% 30.28 in 7.0 mi Calm Calm - N/A   Clear
6:53 AM 35.1 °F 32.2 °F 33.1 °F 92% 30.29 in 4.0 mi WSW 3.5 mph - N/A   Clear
7:53 AM 37.0 °F - 35.1 °F 93% 30.30 in 4.0 mi Calm Calm - N/A   Clear
8:53 AM 45.0 °F - 39.9 °F 82% 30.31 in 10.0 mi Calm Calm - N/A   Clear
9:53 AM 51.1 °F - 43.0 °F 74% 30.31 in 10.0 mi Calm Calm - N/A   Clear
10:53 AM 55.9 °F - 42.1 °F 60% 30.31 in 10.0 mi Calm Calm - N/A   Clear
11:53 AM 59.0 °F - 42.1 °F 53% 30.29 in 9.0 mi Calm Calm - N/A   Clear
12:53 PM 61.0 °F - 42.1 °F 50% 30.26 in 9.0 mi Calm Calm - N/A   Clear
1:53 PM 63.0 °F - 42.1 °F 46% 30.24 in 9.0 mi Calm Calm - N/A   Clear
2:53 PM 64.0 °F - 42.1 °F 45% 30.22 in 9.0 mi Calm Calm - N/A   Clear
3:53 PM 64.0 °F - 42.1 °F 45% 30.20 in 10.0 mi NNW 4.6 mph - N/A   Clear
4:53 PM 60.1 °F - 42.1 °F 51% 30.19 in 10.0 mi WNW 3.5 mph - N/A   Clear
5:53 PM 54.0 °F - 42.1 °F 64% 30.19 in 10.0 mi WNW 3.5 mph - N/A   Clear
6:53 PM 53.1 °F - 43.0 °F 69% 30.20 in 9.0 mi Calm Calm - N/A   Clear
7:53 PM 48.0 °F - 42.1 °F 80% 30.20 in 7.0 mi Calm Calm - N/A   Clear
8:53 PM 46.0 °F - 41.0 °F 83% 30.21 in 6.0 mi Calm Calm - N/A   Haze
9:53 PM 45.0 °F - 39.9 °F 82% 30.21 in 5.0 mi Calm Calm - N/A   Haze
10:53 PM 44.1 °F - 41.0 °F 89% 30.22 in 4.0 mi Calm Calm - N/A   Clear
11:53 PM 42.1 °F 40.2 °F 39.9 °F 92% 30.22 in 4.0 mi East 3.5 mph - N/A   Clear